TA2DMX-13 Weather Reports


Display with metric or nautical units.
time (UTC)temp
F
wind
direction
speed
MPH
gust
MPH
rain 1hr
in
rain 24hr
in
rain mn
in
humidity
%
barometer
mb
20260504045108 54 315 0.0 0.0 0.00 0.00 0.00 64 1008.2
20260504043406 54 270 0.0 0.0 0.00 0.00 0.00 64 1008.2
20260504041803 54 270 0.0 0.0 0.00 0.00 0.00 66 1008.1
20260504040159 53 270 0.0 0.0 0.00 0.00 0.00 67 1008.1
20260504030810 52 315 0.0 0.0 0.00 0.00 0.00 69 1007.7
20260504025208 53 0 0.0 0.0 0.00 0.00 0.00 67 1007.6
20260504023605 53 0 0.0 0.0 0.00 0.00 0.00 66 1007.5
20260504014507 52 45 0.0 0.0 0.00 0.00 0.00 66 1007.3
20260504013004 52 270 0.0 0.0 0.00 0.00 0.00 66 1007.3
20260504005914 52 315 0.0 0.0 0.00 0.00 0.00 66 1007.2
20260504004310 53 315 0.0 0.0 0.00 0.00 0.00 66 1007.0
20260504002707 52 270 0.0 0.0 0.00 0.00 0.00 65 1007.1
20260504001103 53 270 0.0 0.0 0.00 0.00 0.00 64 1007.0
20260503231534 52 270 0.0 0.0 0.00 0.00 0.00 65 1007.0
20260503230030 52 270 0.0 0.0 0.00 0.00 0.00 65 1007.1
20260503224528 52 225 0.0 0.0 0.00 0.00 0.00 65 1007.0
20260503223025 52 225 0.0 0.0 0.00 0.00 0.00 65 1007.1
20260503221523 52 270 0.0 0.0 0.00 0.00 0.00 64 1007.1
20260503220021 52 0 0.0 0.0 0.00 0.00 0.00 64 1007.1
20260503214518 52 270 0.0 0.0 0.00 0.00 0.00 63 1007.2
20260503213016 52 0 0.0 0.0 0.00 0.00 0.00 63 1007.3
20260503211512 52 0 0.0 0.0 0.00 0.00 0.00 64 1007.2
20260503210009 52 225 0.0 0.0 0.00 0.00 0.00 64 1007.2
20260503204508 52 270 0.0 0.0 0.00 0.00 0.00 63 1007.4
20260503200912 52 270 0.0 0.0 0.00 0.00 0.00 62 1007.4
20260503193807 52 0 0.0 0.0 0.00 0.00 0.00 62 1007.8
20260503192203 52 270 0.0 0.0 0.00 0.00 0.00 63 1007.7
20260503190010 52 270 0.0 0.0 0.00 0.00 0.00 65 1007.8
20260503183010 52 270 0.0 0.0 0.00 0.00 0.00 65 1007.8
20260503181507 52 315 0.0 0.0 0.00 0.00 0.00 65 1007.8
20260503180005 52 0 0.0 0.0 0.00 0.00 0.00 65 1007.8
20260503172604 52 0 0.0 0.0 0.00 0.00 0.00 66 1007.7
20260503081507 55 225 0.0 0.0 0.00 0.00 0.00 73 1008.8